[[{"header":{"parameterUnit":"m.s-1","parameterCategory":1,"la1":30.2991,"la2":30.254,"lo1":-89.0895,"lo2":-89.0444,"dy":0.0017,"dx":0.0017,"nx":28,"ny":28,"refTime":"2025-05-23T09:00:00:Z","depth":0,"parameterNumber":2,"parameterNumberName":"U-component_of_WINDS"},"data":[0,0,0,0,0,0,0,0,0,0,0,0,0,0,0,0,0,0,0,0,0,0,0,0,0,0,0,0,0,0,0,0,0,0,0,0,0,0,0,0,0,0,0,0,0,0,0,0,0,0,0,0,0,0,0,0,0,0,2.539,2.539,0,2.5442,2.5443,2.5443,2.5419,2.5418,2.5417,2.5416,2.5468,2.547,2.5473,0,0,0,0,0,0,0,0,0,0,0,0,0,2.5266,2.5268,2.5389,2.539,2.5391,2.5442,2.5443,2.5443,2.542,2.5418,2.5416,2.5415,2.5467,2.547,2.5473,0,0,0,0,0,0,0,0,0,0,0,0,0,2.5319,2.5269,2.5389,2.5385,2.5385,2.5442,2.5443,2.5444,2.542,2.5418,2.5416,2.5414,2.5466,2.5469,2.5473,2.5536,0,0,2.5485,2.5487,0,0,0,0,0,0,0,0,2.5316,2.5324,2.5385,2.5386,2.5386,2.5422,2.5418,2.5475,2.542,2.5407,2.5415,2.5413,2.5454,2.5459,2.5473,2.5539,2.5541,2.5486,2.5488,2.549,2.5491,0,0,0,0,0,0,0,2.5313,2.5321,2.541,2.5386,2.5386,2.538,2.5385,2.5429,2.5441,2.5408,2.5406,2.5413,2.5454,2.5469,2.5474,2.5542,2.5485,2.5489,2.5491,2.5493,2.5661,2.5663,0,0,0,0,0,0,2.5309,2.5318,2.5409,2.5412,2.5346,2.5384,2.539,2.5412,2.544,2.5442,2.5414,2.5411,2.5463,2.5469,2.5476,2.555,2.549,2.5493,2.5495,2.5659,2.5661,2.5663,0,0,0,0,0,0,2.5307,2.5318,2.5406,2.5365,2.5376,2.5388,2.5414,2.5415,2.543,2.5445,2.5447,2.5428,2.5462,2.547,2.5521,2.5551,2.5495,2.5499,2.5656,2.5659,2.5662,2.57,0,0,0,0,0,0,2.5303,2.5317,2.5341,2.5365,2.5378,2.5452,2.5416,2.5417,2.5437,2.5433,2.5458,2.5461,2.5461,2.5515,2.5525,2.5556,2.5502,2.5653,2.5657,2.5661,2.5696,2.5704,2.5711,0,0,0,0,0,2.5299,2.535,2.5343,2.5354,2.5409,2.5454,2.5461,2.5461,2.5439,2.5464,2.5473,2.546,2.5547,2.5521,2.5532,2.5564,2.5651,2.5656,2.5661,2.5692,2.5702,2.571,0,0,0,0,0,0,2.5329,2.5353,2.5345,2.5406,2.5428,2.545,2.548,2.5471,2.55,2.5495,2.5494,2.55,2.5552,2.5563,2.5534,2.5625,2.5596,2.5603,2.5616,2.5625,2.5633,2.5628,2.5505,0,0,0,0,0,2.5342,2.5377,2.5397,2.5448,2.5459,2.5468,2.5488,2.5486,2.5508,2.5517,2.5531,2.5553,2.5585,2.5606,2.5637,2.5698,2.5702,2.5725,2.5732,2.5738,2.5744,2.5775,2.5785,2.5679,2.5679,2.5679,0,0,2.5371,2.5388,2.541,2.5454,2.5471,2.5506,2.5476,2.5515,2.5541,2.5523,2.5572,2.5583,2.5607,2.5663,2.5688,2.5674,2.5774,2.5744,2.5749,2.5751,2.5781,2.5791,2.58,2.5682,2.5682,2.5681,0,0,2.544,2.5458,2.5502,2.5519,2.5545,2.5551,2.5561,2.5585,2.5591,2.564,2.5627,2.5658,2.5713,2.5731,2.5747,2.5822,2.581,2.5832,2.587,2.5901,2.5909,2.5916,2.5941,2.5951,2.5838,2.5838,2.5838,0,2.5471,2.5525,2.5525,2.5565,2.5584,2.557,2.5614,2.5631,2.5665,2.5678,2.5662,2.5731,2.5746,2.5805,2.5823,2.5838,2.5848,2.5829,2.5908,2.5915,2.5922,2.5946,2.5956,2.5841,2.584,2.584,2.584,0,2.5561,2.5598,2.5631,2.5665,2.5687,2.5729,2.5735,2.5758,2.5754,2.5761,2.581,2.5828,2.5861,2.5876,2.5872,2.5934,2.5924,2.5908,2.5878,2.5935,2.5957,2.5966,2.5844,2.5843,2.5842,2.5842,0,0,2.565,2.5683,2.5695,2.571,2.5737,2.5766,2.5806,2.5839,2.5858,2.5882,2.5915,2.5962,2.5947,2.5966,2.5964,2.5992,2.6048,2.5972,2.5972,2.5984,2.6114,2.6125,2.6135,2.6041,2.6042,2.6044,2.6112,0,2.572,2.5791,2.5792,2.5857,2.589,2.5878,2.5913,2.5933,2.5941,2.5969,2.5977,2.601,2.5989,2.6,2.6026,2.6035,2.6074,2.6031,2.6069,2.6071,2.6062,2.6147,2.6159,2.6222,2.6121,2.6122,2.6123,0,2.581,2.5838,2.5906,2.5928,2.5942,2.5973,2.6003,2.6031,2.6053,2.6057,2.6077,2.6071,2.6111,2.6081,2.6135,2.6106,2.6122,2.6129,2.6131,2.6133,2.6099,2.615,2.6242,2.6251,2.6137,2.6136,2.6135,0,2.5865,2.5919,2.5967,2.598,2.6007,2.6029,2.6042,2.6062,2.6081,2.6107,2.6119,2.615,2.6166,2.6189,2.6191,2.6169,2.6245,2.6215,2.6247,2.6247,2.6262,2.6261,2.6356,2.6276,2.6276,2.6276,2.6275,0,2.5942,2.5984,2.5992,2.6021,2.6067,2.6068,2.6113,2.6123,2.6142,2.6171,2.6163,2.6191,2.6193,2.6222,2.6224,2.6267,2.6275,2.6278,2.6277,2.6277,2.6277,2.6286,2.6281,2.6278,2.6278,2.6277,2.6277,0,2.6011,2.6018,2.6068,2.609,2.6097,2.6129,2.6147,2.6175,2.6181,2.6219,2.6228,2.6239,2.6272,2.6277,2.6315,2.6317,2.6368,2.6364,2.6361,2.6359,2.639,2.6386,2.6494,2.6507,2.642,2.6421,2.6421,0,2.6058,2.609,2.6115,2.6135,2.6148,2.618,2.62,2.6202,2.6222,2.625,2.6273,2.6306,2.6331,2.6385,2.6395,2.6424,2.642,2.6455,2.6424,2.6422,2.6418,2.6415,2.6417,2.6461,2.6462,2.6462,2.6463,0,2.614,2.6142,2.6172,2.6202,2.6226,2.6249,2.6272,2.6288,2.6293,2.6316,2.635,2.637,2.641,2.6441,2.647,2.6482,2.6473,2.6473,2.6482,2.6481,2.6477,2.6477,2.6375,2.647,2.647,2.6469,2.6469,2.6468,2.6199,2.6226,2.6247,2.628,2.6297,2.6318,2.6344,2.6354,2.6383,2.6415,2.6415,2.6451,2.6472,2.651,2.6523,2.6551,2.654,2.6553,2.6555,2.6558,2.656,2.6474,2.6557,2.6557,2.6557,2.6556,2.6556,0,2.6279,2.6292,2.6322,2.6354,2.6379,2.6369,2.6393,2.6415,2.6447,2.6468,2.6493,2.6531,2.6562,2.6575,2.6604,2.6624,2.6621,2.6632,2.6629,2.6631,2.657,2.6559,2.6634,2.6634,2.6634,2.6634,2.6634,2.6634,2.6323,2.6368,2.6373,2.6425,2.6438,2.6475,2.6489,2.6508,2.6524,2.6567,2.6592,2.6601,2.6618,2.6649,2.6676,2.6679,2.6689,2.6701,2.6702,2.6644,2.6636,2.6629,2.6618,2.6704,2.6704,2.6761,2.6762,2.6762]},{"header":{"parameterUnit":"m.s-1","parameterCategory":1,"la1":30.2991,"la2":30.254,"lo1":-89.0895,"lo2":-89.0444,"dy":0.0017,"dx":0.0017,"nx":28,"ny":28,"refTime":"2025-05-23T09:00:00:Z","depth":0,"parameterNumber":3,"parameterNumberName":"V-component_of_WINDS"},"data":[0,0,0,0,0,0,0,0,0,0,0,0,0,0,0,0,0,0,0,0,0,0,0,0,0,0,0,0,0,0,0,0,0,0,0,0,0,0,0,0,0,0,0,0,0,0,0,0,0,0,0,0,0,0,0,0,0,0,3.6292,3.6293,0,3.6415,3.6416,3.6417,3.641,3.6409,3.6407,3.6405,3.6527,3.6531,3.6536,0,0,0,0,0,0,0,0,0,0,0,0,0,3.6046,3.605,3.6291,3.6293,3.6295,3.6414,3.6416,3.6418,3.6411,3.6408,3.6406,3.6404,3.6525,3.6531,3.6537,0,0,0,0,0,0,0,0,0,0,0,0,0,3.6159,3.6052,3.6291,3.6306,3.6308,3.6414,3.6416,3.6418,3.6411,3.6408,3.6406,3.6403,3.6523,3.653,3.6537,3.6636,0,0,3.656,3.6563,0,0,0,0,0,0,0,0,3.6153,3.6168,3.6302,3.6305,3.6308,3.6395,3.6374,3.6491,3.6412,3.6372,3.6405,3.6402,3.6484,3.6495,3.6524,3.6641,3.6647,3.656,3.6565,3.6568,3.657,0,0,0,0,0,0,0,3.6145,3.6163,3.634,3.6304,3.6307,3.6304,3.6318,3.6396,3.6441,3.6375,3.6375,3.639,3.6486,3.6517,3.6526,3.6648,3.656,3.6567,3.6571,3.6574,3.6853,3.6856,0,0,0,0,0,0,3.6134,3.6156,3.6336,3.6344,3.6222,3.6311,3.6326,3.6369,3.6441,3.6449,3.6392,3.6389,3.6505,3.6518,3.6531,3.6651,3.6568,3.6575,3.6579,3.685,3.6854,3.6857,0,0,0,0,0,0,3.6129,3.6151,3.6331,3.625,3.6273,3.6318,3.6367,3.6373,3.6404,3.6453,3.6461,3.6416,3.6504,3.652,3.661,3.6655,3.6578,3.6585,3.6847,3.6851,3.6856,3.6892,0,0,0,0,0,0,3.6122,3.6149,3.6188,3.6251,3.6277,3.641,3.637,3.6377,3.6417,3.6415,3.6478,3.6485,3.6503,3.6599,3.6617,3.6664,3.6591,3.6843,3.6849,3.6854,3.6887,3.6898,3.6906,0,0,0,0,0,3.6113,3.6192,3.619,3.6211,3.6327,3.6413,3.6428,3.6447,3.6421,3.646,3.6491,3.6483,3.6647,3.6608,3.6629,3.6678,3.684,3.6847,3.6854,3.6883,3.6896,3.6906,0,0,0,0,0,0,3.6131,3.6201,3.6199,3.63,3.6351,3.6411,3.6461,3.646,3.6518,3.6513,3.6533,3.6548,3.6638,3.6667,3.6622,3.6777,3.674,3.6751,3.6755,3.6768,3.6777,3.6768,3.6597,0,0,0,0,0,3.6147,3.6212,3.6269,3.6353,3.6379,3.6416,3.6453,3.6465,3.6517,3.6538,3.6576,3.6626,3.6689,3.6729,3.679,3.6891,3.6905,3.6935,3.6944,3.6952,3.6962,3.7017,3.7032,3.688,3.6879,3.6879,0,0,3.618,3.6226,3.6266,3.6358,3.6398,3.6464,3.6433,3.6504,3.6553,3.6548,3.6636,3.6666,3.6723,3.6819,3.6863,3.6846,3.7007,3.6961,3.6966,3.6972,3.7026,3.704,3.7053,3.6884,3.6883,3.6883,0,0,3.6275,3.6316,3.6391,3.6433,3.6495,3.6519,3.6537,3.6598,3.6618,3.6707,3.6705,3.6762,3.6869,3.691,3.6945,3.7055,3.705,3.7074,3.7124,3.7178,3.719,3.7201,3.7241,3.7255,3.7083,3.7084,3.7084,0,3.6308,3.6409,3.6429,3.6502,3.6542,3.6542,3.6618,3.6656,3.6734,3.6761,3.6741,3.6877,3.6915,3.7021,3.7048,3.7076,3.7096,3.7068,3.7187,3.7198,3.7208,3.7247,3.7261,3.7086,3.7086,3.7086,3.7085,0,3.6446,3.6516,3.6569,3.6647,3.6693,3.6766,3.6797,3.684,3.6847,3.6873,3.6963,3.7009,3.7079,3.7105,3.7111,3.7212,3.7199,3.7183,3.7146,3.7225,3.7261,3.7276,3.709,3.7089,3.7088,3.7088,0,0,3.6556,3.6644,3.6664,3.6699,3.6767,3.6821,3.6894,3.6964,3.7001,3.7055,3.7116,3.7207,3.7193,3.7232,3.7243,3.7291,3.7376,3.7269,3.727,3.7288,3.7489,3.7502,3.7519,3.7372,3.7375,3.7378,3.7485,0,3.6658,3.6789,3.681,3.6925,3.699,3.699,3.7054,3.7102,3.7128,3.7185,3.7213,3.7278,3.7254,3.7278,3.7325,3.7356,3.7417,3.7348,3.7429,3.7432,3.7416,3.7537,3.7551,3.765,3.7499,3.7501,3.7503,0,3.6795,3.6854,3.6976,3.7036,3.7064,3.7121,3.7187,3.7242,3.7296,3.7312,3.7356,3.7362,3.7436,3.7396,3.7498,3.7451,3.7485,3.7505,3.751,3.7518,3.7473,3.755,3.7682,3.7697,3.7525,3.7524,3.7522,0,3.6863,3.6973,3.7061,3.7091,3.7163,3.7203,3.7235,3.7286,3.7327,3.7384,3.7411,3.7475,3.751,3.7559,3.7581,3.755,3.7682,3.7644,3.7697,3.7696,3.7725,3.7723,3.7865,3.7746,3.7746,3.7745,3.7745,0,3.6976,3.705,3.7093,3.7146,3.723,3.7252,3.7333,3.7364,3.741,3.7468,3.7472,3.7526,3.7552,3.7611,3.7628,3.771,3.7726,3.774,3.7744,3.774,3.7739,3.7763,3.7757,3.7749,3.7749,3.7748,3.7747,0,3.7067,3.7098,3.7193,3.7255,3.7272,3.733,3.7382,3.7433,3.7459,3.7533,3.7552,3.7591,3.766,3.7687,3.777,3.7782,3.7877,3.7875,3.786,3.7861,3.7913,3.7908,3.8076,3.81,3.7964,3.7966,3.7967,0,3.7137,3.7195,3.7262,3.7303,3.7336,3.7401,3.7443,3.7467,3.7511,3.7577,3.762,3.7689,3.7746,3.7856,3.7891,3.7955,3.7955,3.8009,3.7964,3.7959,3.7956,3.7953,3.7959,3.8018,3.8019,3.802,3.8021,0,3.7258,3.7271,3.7333,3.74,3.7451,3.7504,3.7556,3.7588,3.762,3.7668,3.774,3.7784,3.787,3.7938,3.8004,3.8035,3.8033,3.8035,3.8051,3.8048,3.8037,3.8044,3.7883,3.8031,3.803,3.8029,3.8029,3.8028,3.7341,3.7393,3.7449,3.7518,3.756,3.7608,3.766,3.7693,3.7753,3.7826,3.7836,3.7912,3.7965,3.8053,3.8087,3.8146,3.8132,3.8154,3.816,3.8166,3.817,3.8027,3.8158,3.8158,3.8157,3.8157,3.8157,0,3.7464,3.75,3.7563,3.7636,3.769,3.7685,3.7742,3.7787,3.7855,3.7905,3.7961,3.8043,3.8109,3.815,3.8216,3.8256,3.8256,3.8272,3.827,3.8277,3.8178,3.8159,3.827,3.827,3.827,3.827,3.827,3.827,3.7533,3.7621,3.764,3.7748,3.7783,3.786,3.7893,3.7937,3.7977,3.8069,3.8125,3.8152,3.8198,3.8267,3.8328,3.8338,3.8362,3.8379,3.8388,3.8296,3.8284,3.8273,3.8254,3.8384,3.8384,3.8482,3.8483,3.8484]}]]